CW0630 Weather Reports


Display with metric or nautical units.
time (UTC)temp
F
wind
direction
speed
MPH
gust
MPH
rain 1hr
in
rain 24hr
in
rain mn
in
humidity
%
barometer
mb
20210415111116 55 136 0.0 1.0 0.01 0.27 0.04 96 1009.1
20210415101035 55 341 0.0 1.0 0.00 0.26 0.03 96 1008.8
20210415091025 54 342 1.0 1.0 0.00 0.26 0.03 95 1008.8
20210415081032 54 355 2.0 3.0 0.00 0.26 0.03 95 1009.4
20210415071331 54 5 1.0 1.0 0.00 0.26 0.03 95 1009.8
20210415061032 54 47 0.0 1.0 0.01 0.26 0.03 94 1010.2
20210415051022 56 80 0.0 4.0 0.02 0.25 0.02 94 1010.9
20210415041054 56 97 4.0 4.0 0.04 0.23 0.00 93 1012.2
20210415031022 57 22 12.0 12.0 0.20 0.19 0.20 93 1012.9
20210415021032 59 63 5.0 5.0 0.00 0.00 0.00 87 1013.5
20210415011031 61 327 3.0 4.0 0.00 0.00 0.00 80 1013.2
20210415001242 63 355 1.0 2.0 0.00 0.00 0.00 77 1013.4
20210414231040 66 15 3.0 6.0 0.00 0.00 0.00 71 1013.6
20210414221029 69 101 3.0 4.0 0.00 0.00 0.00 64 1013.6
20210414211038 70 65 1.0 2.0 0.00 0.00 0.00 61 1014.0
20210414201031 70 105 5.0 5.0 0.00 0.00 0.00 62 1014.7
20210414191024 70 70 2.0 3.0 0.00 0.00 0.00 65 1016.1
20210414181041 67 65 2.0 2.0 0.00 0.00 0.00 66 1017.2
20210414171035 67 229 0.0 0.0 0.00 0.00 0.00 67 1018.2
20210414161026 70 170 5.0 5.0 0.00 0.00 0.00 62 1017.9
20210414151027 68 205 7.0 7.0 0.00 0.00 0.00 67 1018.4
20210414141050 65 173 3.0 6.0 0.00 0.00 0.00 73 1018.8
20210414131143 60 178 4.0 5.0 0.00 0.00 0.00 79 1019.4
20210414121048 55 157 3.0 3.0 0.00 0.00 0.00 88 1019.8